sat.trackr.live / text

‹ back to catalog

STARLINK-34370

NORAD 64309 · 2025-123U

PAYLOAD ACTIVE UNKNOWN

§ Identity

Operator
Country
US
Launch date
2025-06-08
Launch site
AFWTR
Launch vehicle
Mass (kg)
RCS (m²)

Purposes: comms

External: N2YO · Heavens-Above · Gunter

§ Orbital elements

Epoch: 2026-09-20T13:13:49.091232Z

Period
94.14 min
Inclination
70.0000°
Eccentricity
0.0003382
Mean motion
15.29584520 rev/d
Perigee alt
474.7 km
Apogee alt
479.4 km
Semi-major
6,855.2 km
B*
4.4357e-4
RAAN
60.8772°
Arg perigee
270.7396°
Mean anomaly
89.3392°
Rev number
7,086

§ Raw data

STARLINK-343701 64309U 25123U   26263.55126263  .00012647  00000+0  44357-3 0  99992 64309  70.0000  60.8772 0003382 270.7396  89.3392 15.29584520 70867

JSON: /api/v1/satellites/64309 · /tle

For live sub-satellite position, see the globe view (requires WebGL).

§ Visibility from observer

Set your observer location to see the next 7 days of passes ≥ 10°. The values pass through the URL so the page stays shareable.

No JS? Fill the form by hand. The geolocation button needs JavaScript.